Location: Morisset
(33.1080°S, 151.4871°E)
Time: 08:36:59
(UTC+00:00)

USA 267 - Pass Details

Date: 29 October 2020
Orbit: 1098 x 1110 km, 122.9° (Epoch: 23 November)

Event Time Altitude Azimuth Distance (km) Brightness Sun altitude
Rises 17:50:33 0° 43° (NE) 3,922 6.4 -13.7°
Reaches altitude 10° 17:53:01 10° 43° (NE) 2,968 5.7 -13.2°
Maximum altitude 17:59:36 88° 316° (NW) 1,118 3.3 -12.0°
Drops below altitude 10° 18:06:14 10° 223° (SW) 2,986 5.4 -10.7°
Sets 18:08:44 0° 222° (SW) 3,947 6.0 -10.3°
